Weather observations for the past three days for
Fort Worth Spinks Airport
Metric (Imperial)
Date Time (cdt) Wind (kph) Vis. (km) Weather Sky Cond. Temperature (ºC) Relative Humidity Wind Chill (°C) Heat Index (°C) Pressure Precipitation (cm)
Air Dwpt 6 hour altimeter (cm) sea level (mb) 1 hr 3 hr 6 hr
Max. Min.
08 15:50 Calm 16.09 Mostly Cloudy BKN023 BKN100 20 18 88% 75.79 0.0
08 14:47 SW 11 16.09 Thunderstorm in Vicinity OVC023 21 16 73% 75.9 0.0
08 13:48 S 15 16.09 Overcast OVC024 21 16 73% 75.9 0.0
08 12:47 SE 13 16.09 Overcast OVC026 22 15 65% 75.95 0.0
08 11:50 SE 17 16.09 Overcast OVC025 22 15 65% 76.02 0.0
08 10:50 SE 13 16.09 Overcast OVC023 20 14 69% 76.07 0.0
08 09:53 SE 6 16.09 Overcast OVC020 18 14 78% 76.12 0.0
08 08:50 SE 7 16.09 Mostly Cloudy BKN020 18 14 78% 76.12 0.0
08 07:50 Calm 16.09 Fair CLR 15 15 100% 76.15 0.0
08 06:35 SE 6 16.09 Mostly Cloudy BKN080 12.8 12.6 99% 76.12 0.0
08 06:15 N 9 11.27 Mostly Cloudy SCT080 BKN130 13.2 12.8 97% 76.15 0.0
08 05:55 S 7 16.09 Mostly Cloudy BKN130 13.8 13.3 97% 76.1 0.0
08 05:35 S 6 16.09 Mostly Cloudy FEW085 BKN130 13.8 13.5 98% 76.12 0.0
08 05:15 S 7 16.09 Mostly Cloudy BKN090 13.9 13.6 98% 76.1 0.0
08 04:55 S 7 16.09 A Few Clouds FEW095 12.9 12.9 100% 76.07 0.0
08 04:35 S 7 16.09 A Few Clouds FEW085 12.7 12.7 100% 76.1 0.0
08 04:15 Calm 16.09 Mostly Cloudy SCT085 BKN150 13 13 100% 76.1 0.0
08 03:55 Calm 14.48 A Few Clouds FEW140 13.4 13.2 99% 76.1 0.0
08 03:35 Calm 16.09 Partly Cloudy FEW090 SCT140 13.6 13.6 100% 76.1 0.0
08 03:15 SE 6 14.48 Partly Cloudy SCT080 SCT100 SCT130 13.8 13.7 99% 76.12 0.0
08 02:55 SE 6 16.09 Overcast OVC075 14.9 14.7 99% 76.17 0.0
08 02:35 Calm 9.66 Fog/Mist OVC075 15.2 14.5 96% 76.2 0.0
08 02:15 Calm 11.27 Overcast BKN075 OVC090 14.6 14 96% 76.17 0.0
08 01:55 Calm 16.09 Overcast BKN075 OVC095 14 13.9 99% 76.17 0.0
08 01:35 Calm 16.09 Overcast OVC075 14 14 100% 76.17 0.0
08 01:15 Calm 16.09 Overcast OVC075 13.9 13.9 100% 76.2 0.0
08 00:55 Calm 14.48 Partly Cloudy FEW075 SCT130 12.8 12.8 18.5 12.7 100% 76.2 0.0
08 00:35 S 6 14.48 Fair CLR 12.9 12.9 100% 76.23 0.0
08 00:15 Calm 14.48 Fair CLR 13.2 13 99% 76.23 0.0
07 23:55 Calm 14.48 A Few Clouds FEW120 13.4 13 97% 76.23 0.0
07 23:35 Calm 14.48 A Few Clouds FEW120 14.4 13 91% 76.2 0.0
07 23:15 Calm 11.27 Partly Cloudy SCT120 14.8 13.7 93% 76.2 0.0
07 22:55 Calm 16.09 Partly Cloudy SCT130 14.3 13.4 94% 76.2 0.0
07 22:35 Calm 16.09 Mostly Cloudy BKN120 15.1 13.2 89% 76.2 0.0
07 22:15 Calm 16.09 Partly Cloudy SCT120 15.2 12.8 86% 76.2 0.0
07 21:55 SE 6 16.09 A Few Clouds FEW130 15.1 13.2 89% 76.15 0.0
07 21:35 SE 6 16.09 Partly Cloudy SCT130 16.2 13 81% 76.15 0.0
07 21:15 SE 7 16.09 Mostly Cloudy SCT130 BKN160 16 13.4 85% 76.15 0.0
07 20:55 SE 6 16.09 Partly Cloudy FEW130 SCT160 16.1 13.7 86% 76.15 0.0
07 20:35 SE 6 16.09 Mostly Cloudy SCT130 BKN160 16.4 13.9 85% 76.15 0.0
07 20:15 Calm 14.48 Mostly Cloudy BKN150 17 13.6 81% 76.15 0.0
07 19:55 S 6 16.09 Overcast BKN140 OVC290 17.6 13.2 76% 76.15 0.0
07 18:52 S 9 16.09 Fair CLR 19 12 64% 76.17 0.0
07 17:47 S 9 16.09 Fair CLR 20 13 64% 76.17 0.0
07 16:46 S 7 16.09 Fair CLR 21 11 53% 76.2 0.0
07 15:54 S 9 16.09 Fair CLR 21 11 53% 76.28 0.0
07 14:55 NE 9 16.09 Fair CLR 21 10 50% 76.25 0.0
07 13:55 E 7 16.09 Fair CLR 21 9 46% 76.35 0.0
07 12:47 NE 15 16.09 Fair CLR 20 11 56% 76.38 0.0
07 10:47 NE 13 16.09 Fair CLR 17 12 73% 76.48 0.0
07 09:55 NE 9 16.09 Fair CLR 17 12 73% 76.53 0.0
07 08:47 N 7 16.09 Fair CLR 14 12 88% 76.56 0.0
07 07:51 Calm 16.09 Fair CLR 13 12 94% 76.56 0.0
07 06:47 Calm 16.09 Fair CLR 11 10 94% 76.56 0.0
07 06:35 NW 7 16.09 A Few Clouds FEW290 11.1 10.4 96% 76.53 0.0
07 06:15 NW 7 16.09 Mostly Cloudy BKN290 11.3 10.7 96% 76.5 0.0
07 05:55 NW 7 16.09 Partly Cloudy SCT290 10.9 10.5 97% 76.5 0.0
07 05:35 N 7 16.09 Fair CLR 10.3 10 98% 76.45 0.0
07 05:15 N 7 16.09 Fair CLR 10.6 10.3 98% 76.43 0.0
07 04:55 N 11 16.09 Fair CLR 10.4 10 97% 76.4 0.0
07 04:35 N 7 16.09 Fair CLR 10.8 10.3 97% 76.4 0.0
07 04:15 NE 9 16.09 A Few Clouds FEW290 10.9 10.5 97% 76.35 0.0
07 03:55 Calm 16.09 Partly Cloudy SCT290 11.4 10.9 97% 76.38 0.0
07 03:35 NE 7 16.09 A Few Clouds FEW290 11.9 11.1 95% 76.35 0.0
07 03:15 NE 15 16.09 Partly Cloudy FEW031 SCT290 12.4 11.4 94% 76.33 0.0
07 02:55 NE 9 16.09 Mostly Cloudy BKN030 12.8 11.5 92% 76.35 0.0
07 02:35 NE 11 16.09 Overcast OVC029 13.2 11.6 90% 76.33 0.0
07 02:15 N 11 16.09 Overcast OVC027 13.4 11.9 91% 76.3 0.0
07 01:55 NE 11 16.09 Overcast OVC023 13.7 12.4 92% 76.28 0.0
07 01:35 E 15 16.09 Overcast OVC021 14.2 12.2 88% 76.28 0.0
07 01:15 NE 6 16.09 Overcast OVC022 14.1 12.5 90% 76.28 0.0
07 00:55 E 15 16.09 Overcast OVC020 14.3 12 15.4 13.6 86% 76.28 0.0
07 00:35 NE 11 16.09 Overcast OVC021 14.1 12.2 88% 76.28 0.0
07 00:15 NE 11 14.48 Overcast OVC022 14.2 12.3 88% 76.28 0.0
06 23:55 NE 11 16.09 Overcast OVC022 14.5 12.7 89% 76.28 0.0
06 23:35 NE 9 16.09 Overcast OVC022 14.6 13.6 94% 76.3 0.0
06 23:15 E 7 16.09 Overcast OVC024 14.7 13.8 94% 76.3 0.0
06 22:55 NE 7 16.09 Overcast OVC026 14.7 13.9 95% 76.3 0.0
06 22:35 E 6 16.09 Overcast OVC026 14.8 14 95% 76.3 0.0
06 22:15 NE 9 16.09 Overcast OVC026 14.9 14.1 95% 76.3 0.0
06 21:55 NE 7 16.09 Overcast OVC028 14.6 14.3 98% 76.28 0.0
06 21:35 NE 7 16.09 Mostly Cloudy BKN028 14.4 14.1 98% 76.25 0.0
06 21:15 NE 7 16.09 A Few Clouds FEW024 13.9 13.7 99% 76.23 0.0
06 20:55 NE 6 16.09 Mostly Cloudy FEW032 BKN290 14.1 13.9 99% 76.17 0.0
06 20:35 NE 6 16.09 Partly Cloudy SCT032 14.2 13.7 97% 76.15 0.0
06 20:15 NE 7 14.48 Overcast OVC030 14.7 14 96% 76.12 0.0
06 19:55 NE 6 16.09 Overcast OVC029 15.3 14.2 93% 76.1 0.0
06 18:49 NE 9 14.48 Overcast OVC026 15 14 94% 76.07 0.0
06 17:50 N 11 6.44 Light Rain Fog/Mist FEW025 BKN045 OVC060 15 13 88% 76.07 0.0
06 16:50 N 19 16.09 Overcast OVC039 17 12 73% 76.05 0.0
06 15:50 N 13 16.09 Overcast OVC036 17 11 68% 76.05 0.0
06 14:47 N 17 16.09 Overcast BKN017 OVC033 15 11 77% 76.12 0.0
06 13:47 N 13 16.09 Overcast OVC013 13 11 88% 76.17 0.0
06 12:47 N 26 16.09 Overcast OVC010 13 11 88% 76.05 0.0
06 11:47 NE 13 16.09 Overcast OVC011 12 11 94% 76.12 0.0
06 10:47 N 17 16.09 Mostly Cloudy BKN010 BKN015 12 12 100% 76.1 0.0
06 09:46 SW 20 6.44 Thunderstorm Light Rain OVC013 11 10 94% 76.2 0.0
06 08:47 N 19 16.09 Overcast OVC015 12 9 82% 76.1 0.0
06 07:49 N 20 16.09 Overcast OVC019 13 9 77% 76 0.0
06 06:46 N 17 16.09 Overcast OVC019 14 10 77% 75.97 0.0
06 06:35 N 17 16.09 Overcast OVC018 13.6 10.1 80% 75.95 0.0
06 06:15 N 17 16.09 Overcast OVC018 13.7 10.1 79% 75.92 0.0
06 05:55 N 17 16.09 Overcast OVC017 14.1 10.6 80% 75.87 0.0
06 05:35 N 17 16.09 Overcast OVC017 14.3 10.8 80% 75.87 0.0
06 05:15 N 17 16.09 Overcast OVC016 14.4 10.9 80% 75.82 0.0
06 04:55 N 19 14.48 Overcast OVC016 14.8 11.3 80% 75.79 0.0
06 04:35 N 17 16.09 Overcast OVC016 15 11.4 79% 75.79 0.0
06 04:15 N 15 16.09 Overcast OVC017 15.3 11.8 80% 75.79 0.0
06 03:55 N 17 16.09 Overcast OVC018 15.5 12.1 80% 75.79 0.0
06 03:35 N 13 16.09 Overcast OVC018 15.7 12.3 80% 75.77 0.0
06 03:15 N 15 16.09 Overcast OVC018 16 12.8 81% 75.77 0.0
06 02:55 N 13 16.09 Overcast OVC020 16.2 12.8 80% 75.74 0.0
06 02:35 N 15 16.09 Overcast OVC021 16.1 12.9 81% 75.74 0.0
06 02:15 N 13 16.09 Overcast OVC022 16.2 12.7 80% 75.74 0.0
06 01:55 N 15 16.09 Overcast OVC024 16.3 13 81% 75.74 0.0
06 00:55 N 17 16.09 Overcast OVC025 17.2 13.6 26.7 17.2 80% 75.72 0.0
06 00:35 N 17 16.09 Overcast OVC025 17.6 13.9 79% 75.74 0.0
06 00:15 N 22 16.09 Overcast OVC025 18.1 13.9 77% 75.74 0.0
05 23:55 N 20 16.09 Overcast OVC026 18.8 14.6 77% 75.72 0.0
05 23:35 N 20 16.09 Overcast OVC027 19.2 14.9 76% 75.72 0.0
05 23:15 N 20 16.09 Overcast OVC027 19.7 14.9 74% 75.72 0.0
05 22:55 N 19 16.09 Overcast OVC028 19.9 14.7 72% 75.69 0.0
05 22:35 N 22 16.09 Overcast OVC027 20 14.8 72% 75.67 0.0
05 22:15 N 17 16.09 Mostly Cloudy BKN028 BKN036 20.2 15.3 74% 75.62 0.0
05 21:55 N 20 16.09 Overcast OVC029 21.2 15.6 71% 75.62 0.0
05 21:35 N 22 16.09 Overcast OVC029 21.7 15.8 69% 75.59 0.0
05 21:15 N 17 16.09 Overcast OVC030 22.4 16.6 70% 75.57 0.0
05 20:55 N 22 16.09 Overcast OVC030 23.1 16.9 68% 75.49 0.0
05 20:35 N 17 16.09 Overcast BKN032 OVC042 23.6 17.2 67% 75.46 0.0
05 20:15 N 15 16.09 Overcast BKN033 OVC042 24.3 17 64% 25 75.44 0.0
05 19:55 N 15 16.09 Overcast BKN033 OVC210 25 17.3 62% 26 75.39 0.0
05 17:50 S 13 G 28 16.09 A Few Clouds FEW060 31 21 55% 34 75.31 0.0
05 16:50 S 11 16.09 Fair CLR 32 21 52% 35 75.29 0.0
Date Time (cdt) Wind (kph) Vis. (km) Weather Sky Cond. Air Dwpt Max. Min. Relative Humidity Wind Chill (°C) Heat Index (°C) altimeter (cm) sea level (mb) 1 hr 3 hr 6 hr
6 hour
Temperature (ºC) Pressure Precipitation (cm)